Flag for Brazil Weather past 2 weeks in Rio de Janeiro, Rio de Janeiro, Brazil

75 °F

Passing clouds.

Feels Like: 75 °F
Forecast: 70 / 87 °F
Wind: 12 mph from South

Location: Rio De Janeiro Airport

Current Time: Oct 13, 2015 at 9:00:48 PM

Latest Report: Oct 13, 2015 at 8:00 PM

Visibility: N/A

Pressure: 30.04 "Hg

Humidity: 89%

Dew point: 72 °F

Location of Rio de JaneiroLocation

Historic Weather in Rio de Janeiro — Graph


Rio de Janeiro temperature yesterday

Maximum temperature yesterday: 84 °F (at 2:00 PM)
Minimum temperature yesterday: 73 °F (at 3:00 AM)
Average temperature yesterday: 78 °F

Past Weeks' High & Low Weather Summary

High90 °F (Oct 8, 12:00 PM)100% (Oct 1, 7:00 PM)30.18 "Hg (Oct 1, 7:00 PM)
Low66 °F (Oct 5, 6:00 AM)43% (Oct 8, 12:00 PM)29.77 "Hg (Oct 3, 3:00 AM)
Average76 °F80%29.96 "Hg
* Reported Sep 28 9:00 PM — Oct 13 8:00 PM, Rio de Janeiro, Weather by CustomWeather, © 2015

Note: Actual official high and low records may vary slightly from our data, if they occured in-between our weather recording intervals... More about our weather records


Rio de Janeiro weather history for previous 24 hours

Time TempWeatherWind HumidityBarometerVisibility
8:00 PM
Tue, Oct 13
75 °FPassing clouds.12 mph89%30.04 "HgN/A
7:00 PM75 °FPassing clouds.15 mph89%30.04 "HgN/A
6:00 PM77 °FPartly cloudy.13 mph79%30.01 "HgN/A
5:00 PM81 °FPassing clouds.7 mph66%29.98 "HgN/A
4:00 PM81 °FPassing clouds.8 mph66%29.98 "HgN/A
3:00 PM81 °FPassing clouds.10 mph74%29.98 "HgN/A
2:00 PM81 °FScattered clouds.10 mph70%29.98 "HgN/A
1:00 PM79 °FScattered clouds.9 mph79%30.01 "HgN/A
12:00 PM82 °FScattered clouds.14 mph74%30.04 "HgN/A
11:00 AM86 °FBroken clouds.12 mph55%30.07 "HgN/A
10:00 AM81 °FPartly sunny.12 mph70%30.07 "Hg6 mi
9:00 AM84 °FPartly sunny.7 mph62%30.07 "Hg6 mi
8:00 AM79 °FPartly sunny.6 mph79%30.07 "Hg5 mi
7:00 AM77 °FPartly sunny.3 mph89%30.04 "Hg5 mi
6:00 AM73 °FPartly sunny.No wind94%30.01 "Hg5 mi
5:00 AM73 °FPartly sunny.No wind89%29.98 "Hg4 mi
4:00 AM73 °FPassing clouds.3 mph94%29.98 "Hg5 mi
3:00 AM75 °FPassing clouds.No wind83%29.95 "Hg4 mi
2:00 AM73 °FPassing clouds.5 mph89%29.95 "Hg4 mi
1:00 AM73 °FPassing clouds.3 mph83%29.98 "Hg4 mi
12:00 AM75 °FPassing clouds.6 mph78%29.98 "Hg4 mi
11:00 PM
Mon, Oct 12
75 °FMostly cloudy.3 mph78%29.98 "Hg4 mi
10:00 PM77 °FPartly cloudy.7 mph74%29.95 "Hg6 mi
9:00 PM77 °FPassing clouds.8 mph74%29.95 "Hg6 mi
Weather by CustomWeather, © 2015

See weather overviewHow to use our weather pages